Location: Champs
(48.8539°N, 2.6040°E)
Time: 06:10:11
(UTC+00:00)

USA 305 - Pass Details

Date: 26 October 2021
Orbit: 564 x 568 km, 53.9° (Epoch: 01 December)

Event Time Altitude Azimuth Distance (km) Brightness Sun altitude
Exits shadow 04:05:40 41° 166° (SSE) 830 3.7 -23.8°
Maximum altitude 04:06:17 44° 142° (SE) 791 3.7 -23.7°
Drops below altitude 10° 04:10:20 10° 70° (ENE) 1,874 6.6 -23.0°
Sets 04:12:39 0° 64° (ENE) 2,775 7.6 -22.7°
